Regional Weather Roundup
Issued by NWS Jackson, KY

Home | Current Version | Previous Version | Graphics & Text | Print | Product List | Glossary On
Versions: 1 2 3 4 5 6 7 8 9 10 11 12 13 14 15 16 17 18 19 20 21 22 23 24 25 26 27 28 29 30 31 32 33 34 35 36 37 38 39 40 41 42 43 44 45 46 47 48 49
000
ASUS43 KJKL 061710
RWRJKL

EAST KENTUCKY HOURLY WEATHER ROUNDUP
NATIONAL WEATHER SERVICE JACKSON KY
1200 PM EST SAT FEB 06 2016

NOTE: "FAIR" INDICATES FEW OR NO CLOUDS BELOW 12,000 FEET WITH
NO SIGNIFICANT WEATHER AND/OR OBSTRUCTIONS TO VISIBILITY.

* THESE REPORTS ARE NOT UNDER NWS QUALITY CONTROL AND MAY NOT
  REPORT WEATHER SUCH AS PRECIPITATION AND FOG.

KYZ079-080-083-085-087-088-110-112-115-119-120-061800
...EASTERN KENTUCKY...

CITY           SKY/WX    TMP DP  RH WIND       PRES   REMARKS
JACKSON        SUNNY     45  19  35 VRB5      30.34F
LONDON         SUNNY     45  18  34 SW6       30.36F
SOMERSET*      SUNNY     45  21  39 SW7       30.39F
MONTICELLO*    SUNNY     48  21  34 W10G16    30.39F
WILLIAMSBURG*  SUNNY     45  18  33 CALM      30.37F
MIDDLESBORO*   SUNNY     42  20  41 E3        30.39F
HARLAN APT*      N/A     43  16  33 SW3       30.36F
HAZARD APT*    SUNNY    N/A N/A N/A SW7       30.36
BLACK MTN*       N/A     32  16  51 NE3         N/A
BIG SANDY*     SUNNY     45  20  37 W3        30.35F
MOREHEAD APT*  SUNNY     45  23  42 VRB7G13   30.36F
$$

KYZ035-036-041-042-044-050-067-078-099-061800
...CENTRAL KENTUCKY...

CITY           SKY/WX    TMP DP  RH WIND       PRES   REMARKS
MT STERLING*   SUNNY     45  27  49 W10       30.35F
DANVILLE*      SUNNY     45  25  45 SW6       30.36F
RICHMOND*      SUNNY     46  21  36 SW10G20   30.35F
LEXINGTON      SUNNY     45  23  42 SW9       30.34F
FRANKFORT      SUNNY     45  22  40 W8        30.33F
$$

KYZ091>093-OHZ055-061-077-WVZ005-015-034-035-042-061800
...SOUTHERN OHIO/WEST VIRGINIA...

CITY           SKY/WX    TMP DP  RH WIND       PRES   REMARKS
COVINGTON      MOSUNNY   41  23  48 W8        30.33F
COLUMBUS       MOSUNNY   37  18  46 W7        30.32F WCI  32
DAYTON         MOSUNNY   36  20  52 SW7       30.32F WCI  30
WILMINGTON     SUNNY     38  21  50 W8        30.32F WCI  32
HUNTINGTON       N/A     45  19  35 SW8       30.34F
CHARLESTON       N/A     44  17  33 W13       30.33F
PINEVILLE*       N/A     43  10  26 MISG      30.39F
BECKLEY          N/A     38  14  37 W8        30.30F WCI  32
$$

VAZ002-007-008-TNZ017-027-036-066-071-061800
...SOUTHWEST VIRGINIA/EAST TENNESSEE...

CITY           SKY/WX    TMP DP  RH WIND       PRES   REMARKS
BRISTOL        PTSUNNY   38  21  50 CALM      30.38F
KNOXVILLE      MOSUNNY   45  22  40 NE5       30.39F
OAK RIDGE      SUNNY     44  19  36 CALM      30.40F
CROSSVILLE     SUNNY     44  16  32 N6        30.35F
NASHVILLE      PTSUNNY   50  16  25 CALM      30.40F
$$

...KEY TO REMARKS...
VSB - VISIBILITY IN MILES
WCI - WIND CHILL INDEX
HX  - HEAT INDEX

$$



USA.gov is the U.S. government's official web portal to all federal, state and local government web resources and services.